IRNSS-1I

Last updated on Oct. 23, 2020, 5:56 a.m. UTC

1 43286U 18035A   20296.54969994  .00000104  00000-0  00000-0 0  9999
2 43286  28.5961 107.2959 0020534 179.0732 357.9899  1.00272545  9388
UTC
Height (km)
Latitude
Longitude
Inclination
Orbital Period
UTC large
Height (km)
Speed (km/s)
/
Latitude / Longitude
Inclination (degrees)
Orbital Period (minutes)
Azimuth
Elevation
Range (km)
Doppler Factor
iOS Compass Heading
iOS Angle

Next 30 passes for location: Hong Kong

Rise time Rise Azimuth (degrees) Set time Set Azimuth (degrees) Duration Max altitude (degrees)

No matching passes for this satellites